This is the latest recevied weather packets stored in our database for station/object WX7FGZ-5. If no packets are shown the sender has not sent any weather packets the latest 10 day(s).
| Time | Temp. | Humidity | Pressure | Rain* | Wind** | Luminosity | Snow |
|---|---|---|---|---|---|---|---|
| 1778090103 | 13.33° C | 35% | 1023.1 hPa | 0 mm | - | 995 W/m² | - |
| 1778089924 | 13.33° C | 35% | 1023.1 hPa | 0 mm | - | 995 W/m² | - |
| 1778089786 | 12.78° C | 37% | 1023.2 hPa | 0 mm | - | 962 W/m² | - |
| 1778089624 | 12.78° C | 37% | 1023.2 hPa | 0 mm | - | 962 W/m² | - |
| 1778089325 | 12.78° C | 37% | 1023 hPa | 0 mm | - | 947 W/m² | - |
| 1778089168 | 13.33° C | 37% | 1023.2 hPa | 0 mm | - | 930 W/m² | - |
| 1778089024 | 13.33° C | 37% | 1023.2 hPa | 0 mm | - | 930 W/m² | - |
| 1778088555 | 13.33° C | 36% | 1022.5 hPa | 0 mm | - | 944 W/m² | - |
| 1778088425 | 13.33° C | 36% | 1022.5 hPa | 0 mm | - | 944 W/m² | - |
| 1778088124 | 12.78° C | 37% | 1022.5 hPa | 0 mm | - | 928 W/m² | - |
| 1778087927 | 12.78° C | 36% | 1022.5 hPa | 0 mm | - | 888 W/m² | - |
| 1778087824 | 12.78° C | 36% | 1022.5 hPa | 0 mm | - | 888 W/m² | - |
| 1778087525 | 12.78° C | 38% | 1022.5 hPa | 0 mm | - | 879 W/m² | - |
| 1778086749 | 12.78° C | 36% | 1022.4 hPa | 0 mm | - | 842 W/m² | - |
| 1778086625 | 12.78° C | 36% | 1022.4 hPa | 0 mm | - | 842 W/m² | - |
| 1778086358 | 12.22° C | 38% | 1022.5 hPa | 0 mm | - | 826 W/m² | - |
| 1778086324 | 12.22° C | 38% | 1022.5 hPa | 0 mm | - | 826 W/m² | - |
| 1778086024 | 11.67° C | 37% | 1022.6 hPa | 0 mm | - | 816 W/m² | - |
| 1778085725 | 11.67° C | 38% | 1022.4 hPa | 0 mm | - | 805 W/m² | - |
| 1778085600 | 11.11° C | 39% | 1022.1 hPa | 0 mm | - | 789 W/m² | - |
| 1778085424 | 11.11° C | 39% | 1022.1 hPa | 0 mm | - | 789 W/m² | - |
| 1778085041 | 11.11° C | 40% | 1022.3 hPa | 0 mm | - | 765 W/m² | - |
| 1778084825 | 11.11° C | 40% | 1022.3 hPa | 0 mm | - | 765 W/m² | - |
| 1778084735 | 11.11° C | 38% | 1022.3 hPa | 0 mm | - | 745 W/m² | - |
| 1778084524 | 11.11° C | 38% | 1022.3 hPa | 0 mm | - | 745 W/m² | - |
* Rain latest hour (hover to see other rain measurements)
** Current wind speed in m/s (hover to see current wind gust speed)